Location: Unspecified
(41.5000°N, 0.0000°E)
Time: 02:58:02
(UTC+00:00)

Vanguard 3 - Pass Details

Date: 24 June 2019
Orbit: 507 x 3264 km, 33.4° (Epoch: 19 July)

Event Time Altitude Azimuth Distance (km) Brightness Sun altitude
Rises 07:15:35 0° 192° (SSW) 7,201 11.8 28.6°
Reaches altitude 10° 07:23:38 10° 175° (S) 5,976 11.6 30.1°
Maximum altitude 07:32:42 16° 145° (SE) 4,986 11.7 31.8°
Drops below altitude 10° 07:40:16 10° 113° (ESE) 4,900 12.2 33.2°
Sets 07:45:34 0° 94° (E) 5,383 12.4 34.2°
